www.pogodaiklimat.ru

Погода и климат >> Архив погоды >> Алжир >> Illizi


ПОГОДА в Illizi

  • Прогноз погоды в Illizi
  • Монитор погоды в Illizi
  • Климат города

АРХИВ ПОГОДЫ в Illizi

Время (UTC), дата Ветер
(напр.,м/с)
 
Видим.   Явления Облачность Т
(С)
Тd
(С)
f
(%)
Тe
(С)
Тes
(С)
Комфортность P
(гПа)
Po
(гПа)
Тmin
(С)
Tmax
(С)
R
(мм)
R24
(мм)
S
(см)
18 11.10 С 3 8000 м 4/0
[Ci sp]
+31.6 +11.8 30 +32 +32 жарко 1012.0 1012.0 +37.2
21 11.10 С 6 8000 м 4/0
[Ci sp]
+28.5 +12.0 36 +30 +30 жарко 1013.3 1013.0
00 12.10 СВ 3 8000 м 4/0
[Ci sp]
+26.5 +11.3 39 +28 +28 жарко 1012.9 1013.0
03 12.10 СВ 6 8000 м 4/0
[Ci sp]
+24.4 +10.7 42 +26 +26 жарко 1013.4 1013.0
06 12.10 СВ 7 7000 м 4/3 1380 м
[Cu med, cong Ci sp]
+22.0 +10.7 49 +24 +24 комфорт 1015.8 1016.0 +21.8
09 12.10 В 6 6000 м 1/1 1380 м
[Cu hum]
+27.5 +9.7 33 +28 +31 жарко 1016.3 1016.0
12 12.10 СВ 3 7000 м ясно +32.0 +11.9 29 +32 +44 жарко 1013.7 1014.0
15 12.10 СВ 3 10 км ясно +33.7 +9.7 23 +33 +36 жарко 1011.8 1012.0
18 12.10 СВ 7 10 км зарница 3/1 1200 м
[Cb calv Ac trans]
+30.4 +7.4 24 +29 +29 жарко 1013.1 1013.0 +34.0
21 12.10 ЮВ 7 10 км зарница 3/1 1200 м
[Cb calv Ac trans]
+28.1 +8.6 29 +28 +28 жарко 1015.1 1015.0
00 13.10 В 4 10 км 1/1 1380 м
[Cu hum]
+25.2 +9.4 37 +26 +26 жарко 1013.7 1014.0
03 13.10 штиль 0 10 км ясно +22.0 +11.6 52 +24 +24 комфорт 1011.7 1012.0
06 13.10 штиль 0 10 км 4/0
[Ac trans Ci fib]
+19.7 +11.4 59 +21 +21 комфорт 1012.6 1013.0 +19.7
09 13.10 штиль 0 10 км 3/0
[Ac trans Ci fib]
+28.5 +14.5 42 +31 +41 душно 1013.4 1013.0
12 13.10 штиль 0 10 км 3/0
[Ac trans Ci fib]
+32.2 +12.9 31 +33 +50 жарко 1011.4 1011.0
15 13.10 штиль 0 10 км 5/4 1200 м
[Cu med, cong Ac trans]
+32.9 +9.1 23 +32 +35 жарко 1009.8 1010.0
18 13.10 С 4 10 км 6/5 1200 м
[Cu med, cong Ac trans]
+31.0 +9.3 26 +30 +30 жарко 1010.6 1011.0 +33.4
21 13.10 штиль 0 10 км 5/4 1200 м
[Cu med, cong Ac trans]
+28.0 +10.3 33 +28 +28 жарко 1011.1 1011.0
00 14.10 С 4 10 км 5/4 1200 м
[Cu med, cong Ac trans]
+26.7 +9.3 33 +27 +27 жарко 1011.0 1011.0
03 14.10 СЗ 3 10 км 5/4 1200 м
[Cu med, cong Ac trans]
+24.4 +8.5 36 +25 +25 комфорт 1009.9 1010.0
06 14.10 штиль 0 7000 м 3/0
[Ac trans Ci fib]
+20.0 +11.8 59 +21 +22 комфорт 1011.1 1011.0 +20.0
09 14.10 С 2 10 км 1/1 1380 м
[Cu hum Ac trans]
+26.2 +12.5 43 +28 +36 жарко 1012.1 1012.0
12 14.10 10 км ясно +31.5 +12.8 32 1009.8 1010.0
15 14.10 СЗ 5 10 км 3/3 1200 м
[Cu med, cong]
+33.4 +12.2 28 +34 +35 очень
жарко
1007.9 1008.0
18 14.10 С 4 8000 м 3/3 1200 м
[Cu med, cong]
+30.5 +10.3 29 +30 +30 жарко 1009.6 1010.0 +33.8
21 14.10 СВ 3 8000 м ясно +26.4 +9.6 35 +27 +27 жарко 1011.2 1011.0
00 15.10 В 3 8000 м ясно +24.0 +9.4 40 +25 +25 комфорт 1011.1 1011.0
03 15.10 В 2 8000 м ясно +21.1 +10.2 50 +23 +23 комфорт 1010.6 1011.0
06 15.10 ЮВ 2 10 км ясно +19.0 +10.1 56 +20 +20 1011.4 1011.0 +19.0
09 15.10 В 4 10 км ясно +27.4 +12.8 40 +29 +35 жарко 1012.6 1013.0
12 15.10 С 3 10 км ясно +35.6 +8.7 19 +34 +45 очень
жарко
1010.0 1010.0
15 15.10 З 8 10 км 3/3 1380 м
[Cu med, cong]
+36.8 +4.8 14 +34 +34 очень
жарко
1008.3 1008.0
18 15.10 С 5 10 км 3/3 1380 м
[Cu med, cong]
+32.0 +5.3 19 +30 +30 жарко 1009.7 1010.0 +37.6
21 15.10 В 3 10 км ясно +26.5 +7.4 30 +26 +26 жарко 1011.1 1011.0
00 16.10 В 3 10 км ясно +25.0 +6.3 30 +25 +25 комфорт 1010.5 1011.0
03 16.10 СВ 2 10 км ясно +23.5 +4.6 29 +23 +23 комфорт 1009.2 1009.0
06 16.10 штиль 0 10 км ясно +20.6 +5.9 38 +21 +21 комфорт 1010.5 1011.0 +20.5
09 16.10 ЮЗ 10 7000 м пыльный позёмок 3/0
[Ac trans]
+33.7 +3.5 15 +31 +31 жарко 1010.8 1011.0
12 16.10 З 12 6000 м пыльный позёмок 5/0
[Ac trans Ci fib]
+37.0 +0.7 10 +33 +33 жарко 1008.7 1009.0
15 16.10 З 10 5000 м пыльный позёмок 4/0
[Ac trans Ci fib]
+37.0 +0.7 10 +33 +33 жарко 1007.8 1008.0
18 16.10 СЗ 7 6000 м 4/0
[Ac trans Ci fib]
+31.9 -0.6 12 +29 +29 жарко 1009.5 1010.0 +38.0
21 16.10 ЮЗ 3 6000 м 4/0
[Ac trans Ci fib]
+25.4 +5.8 28 +25 +25 комфорт 1010.0 1010.0
00 17.10 Ю 4 7000 м 4/0
[Ac trans Ci fib]
+23.5 +5.0 30 +23 +23 комфорт 1008.9 1009.0
03 17.10 Ю 4 7000 м 4/0
[Ac trans Ci fib]
+21.1 +5.0 35 +22 +22 комфорт 1008.3 1008.0
06 17.10 Ю 6 8000 м 3/0
[Ci fib]
+21.2 +2.2 28 +21 +21 комфорт 1009.2 1009.0 +20.6
09 17.10 Ю 6 10 км ясно +32.0 -1.2 12 +29 +32 жарко 1009.6 1010.0
12 17.10 ЮЗ 8 6000 м ясно +36.7 -1.3 9 +33 +36 жарко 1006.4 1006.0
15 17.10 З 9 4000 м пыльный позёмок 1/0
[Ci sp]
+37.1 -1.0 9 +33 +34 жарко 1004.6 1005.0
18 17.10 З 5 5000 м 1/0
[Ci sp]
+33.0 -1.0 11 +29 +29 жарко 1005.4 1005.0 +37.9
21 17.10 СЗ 6 5000 м ясно +30.1 +0.9 15 +27 +27 жарко 1006.4 1006.0
00 18.10 В 2 5000 м ясно +25.0 +4.9 27 +24 +24 комфорт 1006.1 1006.0
03 18.10 Ю 3 5000 м ясно +22.7 +5.4 33 +23 +23 комфорт 1005.3 1005.0
06 18.10 Ю 5 3000 м пыль ясно +22.8 +3.1 27 +22 +22 комфорт 1005.7 1006.0 +22.0
09 18.10 Ю 7 4000 м пыль ясно +32.4 +0.1 13 +29 +31 жарко 1005.7 1006.0
12 18.10 З 10 4000 м пыльный позёмок ясно +36.7 -0.9 9 +33 +33 жарко 1003.4 1003.0

 

Местоположение метеостанции Illizi (Алжир): широта 26.50 долгота 8.42 высота над уровнем моря 544 м.

В архиве по умолчанию представлена погода в Illizi за последнюю неделю. Архивные данные за месяц целиком и за предыдущие месяцы, начиная с января 2011 года, Вы можете получить, выбрав интересующий диапазон дат из раскрывающегося списка и нажав кнопку "Ввод!".


*Определитесь, кто Вы:
робот инопланетянин человек

Внимание! Время в таблицах - всемирное. Для получения местного времени необходимо прибавить поправку, которая в Illizi равна 1 ч.

Смотрите также архив погоды в соседних городах и на ближайших метеорологических станциях:

Погода в Fadnoune (Алжир) (79 км)
Погода в Bordj Haous (Алжир) (186 км)
Погода в In Amenas (Алжир) (210 км)
Погода в Tin Fouye (Алжир) (231 км)
Погода в Djanet (Алжир) (270 км)
Погода в Tinalkoum (Алжир) (278 км)
Погода в Mertouek (Алжир) (383 км)
Погода в Rhourde-Nouss (Алжир) (396 км)
Погода в Ghadames (Ливия) (417 км)
Погода в Moulay Lachen (Алжир) (425 км)

Пояснения к столбцам:

Ветер - указаны скорость ветра в м/с - средняя за 10 мин, порывы в срок и между сроками (в фигурных скобках) и направление, откуда дует ветер: С - северный, СВ - северо-восточный, В - восточный, ЮВ - юго-восточный, Ю - южный, ЮЗ - юго-западный, З - западный, СЗ - северо-западный.
Видимость - горизонтальная дальность видимости в метрах или километрах. При видимости от 1 до 10 км при отсутствии осадков обычно наблюдается дымка, при ухудшении видимости до 1 км и менее - туман. В сухую погоду видимость может ухудшаться дымом, пылью или мглою.
Явления - указаны атмосферные явления, наблюдавшиеся в срок или в последний час перед сроком; фигурными скобками обозначены явления, наблюдавшиеся между сроками (за 1-3 часа до срока); квадратными скобками обозначены град или гололедные отложения с указанием их диаметра в мм.
Облачность - указаны через наклонную черту общая и нижняя облачность в баллах и высота нижней границы облаков в метрах; квадратными скобками обозначены формы облаков: Ci - перистые, Cs - перисто-слоистые, Cc - перисто-кучевые, Ac - высококучевые, As - высокослоистые, Sc - слоисто-кучевые, Ns - слоисто-дождевые, Cu - кучевые, Cb - кучево-дождевые. Подробнее классификацию облаков см. в Атласе облаков (PDF).
T - Температура воздуха - температура, измеренная на высоте 2 м над землей.
Td - Температура точки росы - температура, при понижении до которой содержащийся в воздухе водяной пар достигнет насыщения.
f - Относительная влажность воздуха - влажноcть воздуха, измеренная на высоте 2 м над землей.
Te - Эффективная температура - температура, которую ощущает одетый по сезону человек в тени. Характеристика душности погоды. При расчете учитывается влияние влажности воздуха и скорости ветра на теплоощущения человека.
Tes - Эффективная температура на солнце - температура, которую ощущает человек, с поправкой на солнечный нагрев. Характеристика знойности погоды. Зависит от высоты солнца над горизонтом, облачности и скорости ветра. Ночью, в пасмурную погоду, а также при ветре 12 м/с и более поправка равна нулю.
P - Атмосферное давление - приведенное к уровню моря атмосферное давление.
Po - Атмосферное давление - измеренное на уровне метеостанции атмосферное давление.
Tmin - Минимальная температура - минимум температуры воздуха на высоте 2 м над землей.
Tmax - Максимальная температура - максимум температуры воздуха на высоте 2 м над землей.
R - Количество осадков - Количество выпавших осадков за период времени, мм. При наведении курсора мыши на число - период времени, за который выпало указанное количество осадков.
R24 - Количество осадков - Количество выпавших осадков за 24 часа, мм.
S - Снежный покров - Высота снежного покрова, см. При наведении курсора мыши на число - состояние снежного покрова и степень покрытия местности в баллах.